Regional Weather Roundup
Issued by NWS

Home | Current Version | Previous Version | Text Only | Print | Product List | Glossary On
Versions: 1 2 3 4 5 6 7 8 9 10 11 12 13 14 15 16 17 18 19 20 21 22 23 24 25 26 27 28 29 30 31 32 33 34 35 36 37 38 39 40 41 42 43 44 45 46 47 48 49 50
000
ASUS43 KMKX 170100
RWRWI

WISCONSIN REGIONAL WEATHER ROUNDUP
NATIONAL WEATHER SERVICE MILWAUKEE/SULLIVAN WI
800 PM CDT MON OCT 16 2017

NOTE: "FAIR" INDICATES FEW OR NO CLOUDS BELOW 12,000 FEET WITH NO
SIGNIFICANT WEATHER AND/OR OBSTRUCTIONS TO VISIBILITY.

WIZ001-002-006>008-014>016-023>028-170200-
NORTHWEST WISCONSIN

CITY           SKY/WX    TMP DP  RH WIND       PRES   REMARKS
SUPERIOR ARPT  CLEAR     54  36  51 SW10      29.91F
ASHLAND        CLEAR     53  35  50 S12       29.94F
HAYWARD        CLEAR     50  35  56 S6        29.99S
SIREN          CLEAR     50  37  59 S5        29.98S
CUMBERLAND     CLEAR     46  34  61 SE5       30.01R
RICE LAKE      CLEAR     51  35  55 SE5       30.03R
CHETEK         CLEAR     50  37  59 SE3       30.02S
LADYSMITH      CLEAR     50  36  57 S6        30.03F
EAU CLAIRE     NOT AVBL
MENOMONIE      CLEAR     52  36  55 S8        30.02F
NEW RICHMOND   CLOUDY    51  36  56 S8        30.00F
OSCEOLA        CLEAR     52  38  58 SE3       30.01F
$$

WIZ003>005-009-010-017-018-170200-
NORTH CENTRAL WISCONSIN

CITY           SKY/WX    TMP DP  RH WIND       PRES   REMARKS
MANITOWISH WTR CLEAR     45  33  62 S5        30.01S
ARBOR VITAE    CLEAR     49  37  63 S6        30.03S
WOODRUFF       CLEAR     49  37  63 S6        30.03S
RHINELANDER    CLEAR     47  34  60 SW6       30.05S
EAGLE RIVER    CLEAR     46  32  58 CALM      30.03S
LAND O LAKES   CLEAR     47  34  61 S5        30.03S
PHILLIPS       CLEAR     46  35  63 S5        30.02S
TOMAHAWK       CLEAR     41  35  81 CALM      30.06S
MEDFORD        CLEAR     45  35  67 S7        30.06S
MERRILL        CLEAR     47  36  63 S5        30.07S
$$

WIZ029-030-035-036-043>047-170200-
CENTRAL WISCONSIN

CITY           SKY/WX    TMP DP  RH WIND       PRES   REMARKS
WAUSAU         CLEAR     49  37  63 CALM      30.07S
MOSINEE        PTCLDY    45  37  76 S8        30.09F
MARSHFIELD     CLEAR     47  34  60 S7        30.07F
STEVENS POINT  CLEAR     46  37  70 S5        30.10S
WAUPACA        CLEAR     50  38  64 CALM      30.12S
WAUTOMA        CLEAR     50  38  63 S6        30.12F
WISC RAPIDS    CLEAR     47  39  74 S5        30.10F
CAMP DOUGLAS   NOT AVBL
$$

WIZ011>013-019>022-031-037>040-048>050-170200-
NORTHEAST WISCONSIN

CITY           SKY/WX    TMP DP  RH WIND       PRES   REMARKS
ANTIGO         CLEAR     44  36  73 S6        30.08S
SHAWANO        CLEAR     51  38  60 CALM      30.09F
OCONTO         CLEAR     49  37  63 S3        30.10S
STURGEON BAY   CLEAR     50  38  63 S9        30.11F
GREEN BAY      CLEAR     50  42  74 S5        30.12R
MANITOWOC      CLEAR     50  38  63 S6        30.14
APPLETON       PTCLDY    46  36  66 SW8       30.11S
CLINTONVILLE   CLEAR     48  37  66 S5        30.10S
OSHKOSH        CLEAR     46  38  73 S6        30.13S
$$

WIZ032>034-041-042-053>061-170200-
SOUTHWEST WISCONSIN

CITY           SKY/WX    TMP DP  RH WIND       PRES   REMARKS
LA CROSSE      CLEAR     53  41  63 SE7       30.08F
SPARTA         CLEAR     44  38  82 CALM      30.11S
VIROQUA        CLEAR     53  36  52 CALM      30.12S
BOSCOBEL       CLEAR     49  41  74 CALM      30.14F
PRAIRIE DU CHI CLEAR     50  39  67 CALM      30.14S
PLATTEVILLE    CLEAR     53  37  54 S8        30.17S
$$

WIZ056-057-062-063-064-067-068-170200-
SOUTH CENTRAL WISCONSIN

CITY           SKY/WX    TMP DP  RH WIND       PRES   REMARKS
REEDSBURG      CLEAR     50  37  60 S3        30.13S
BARABOO/DELLS  CLEAR     47  37  66 S6        30.14S
LONE ROCK      NOT AVBL
MINERAL POINT  CLEAR     54  36  50 S5        30.16S
MADISON        CLEAR     53  38  56 S5        30.15F
MIDDLETON      CLEAR     54  37  52 SW6       30.16F
WATERTOWN      CLEAR     48  39  71 S3        30.16S
MONROE         CLEAR     50  36  57 S8        30.17S
JANESVILLE     CLEAR     54  36  50 MISG      30.18S
$$

WIZ051-052-058>065-066-070>072-170200-
SOUTHEAST WISCONSIN

CITY           SKY/WX    TMP DP  RH WIND       PRES   REMARKS
MILWAUKEE      CLEAR     52  38  58 S6        30.18F
WAUKESHA       CLEAR     48  36  61 CALM      30.18F
MILWAUKEE/TIMM CLEAR     50  36  57 S6        30.18F
RACINE         CLEAR     49  42  77 S5        30.20F
BURLINGTON     CLEAR     46  40  79 CALM      30.19S
KENOSHA        CLEAR     52  37  56 S5        30.20S
FOND DU LAC    CLEAR     48  37  65 S6        30.14F
SHEBOYGAN      CLEAR     46  39  76 S6        30.15S
WEST BEND      CLEAR     46  36  66 SW3       30.17S
JUNEAU         CLEAR     49  37  62 S5        30.16F
$$

LSZ147-162-170200-
LAKE SUPERIOR

STATION/POSITION TIME  TEMP    WIND        PRES    WAVE
                       AIR SEA DIR/SP/G            HT/PER
                 (UTC) (F)     (DEG/KT/KT) (MB)    (FT/S)
W MID LAKE BUOY  2350   54 53              1013.4F   3/ 5
DEVILS ISLAND    0000   56     190/ 10/ 13 1013.0F
SAXON HARBOR     0040   56     190/  8/ 16 1013.2F
$$

LMZ867-665-643>646-170200-
LAKE MICHIGAN

STATION/POSITION TIME  TEMP    WIND        PRES    WAVE
                       AIR SEA DIR/SP/G            HT/PER
                 (UTC) (F)     (DEG/KT/KT) (MB)    (FT/S)
S GREEN BAY BUOY 0030   57 58  190/ 14/ 16 1019.0S
N MID LAKE BUOY  2350   56 60  210/ 19/ 21 1019.8F   3/ 5
NORTHPORT PIER   0040   52     180/  3/  9 1019.0S
KEWAUNEE LAKESHO 0030   54     210/  8/  9 1019.3R
SHEBOYGAN LAKESH 0000   55     190/ 12/ 12 1021.0F
PORT WASHINGTON  0040   52     240/  3/  5 1022.4S
MILWAUKEE LAKESH 0050   56     210/  5/  6   N/A
S MID LAKE BUOY  2350   60 62  260/ 12/ 14 1022.9F   1/ 3
KENOSHA   LAKESH 0000   57     200/  5/  6 1022.4
$$

TC  - TEMPERATURE IN CELSIUS
VSB - VISIBILITY IN STATUTE MILES
WCI - WIND CHILL INDEX
HX  - HEAT INDEX





USA.gov is the U.S. government's official web portal to all federal, state and local government web resources and services.